Location: Goll?ig?dem
(16.6773°N, 80.7332°E)
Time: 06:56:29
(UTC+00:00)

USA 32 - Pass Details

Date: 21 April 2021
Orbit: 776 x 783 km, 85.0° (Epoch: 08 April)

Event Time Altitude Azimuth Distance (km) Brightness Sun altitude
Rises 13:06:51 0° 183° (S) 3,244 7.1 -3.8°
Reaches altitude 10° 13:09:11 10° 184° (S) 2,318 6.4 -4.4°
Maximum altitude 13:14:23 82° 271° (W) 785 4.2 -5.6°
Drops below altitude 10° 13:19:36 10° 360° (N) 2,320 6.7 -6.8°
Sets 13:21:57 0° 1° (N) 3,249 7.4 -7.3°
